Crosby, ND

5:09 AM CST on December 15, 2017 (GMT -0600)
Crosby

Weather History for KD50 - January, 2013

Change the Weather History Date:

Friday, January 4, 2013

  Actual Average (KISN) Record (KISN)
Temperature  
Mean Temperature 11 °F -  
Max Temperature 17 °F 17 °F 50 °F (2012)
Min Temperature 5 °F -5 °F -34 °F (1950)
Degree Days  
Heating Degree Days 54    
Moisture  
Dew Point 7 °F    
Average Humidity 78    
Maximum Humidity 85    
Minimum Humidity 68    
Precipitation  
Precipitation 0.00 in - - ()
Sea Level Pressure  
Sea Level Pressure 29.96 in    
Wind  
Wind Speed 11 mph (SSW)    
Max Wind Speed 18 mph    
Max Gust Speed 23 mph    
Visibility 10 miles    
Events      
Averages and records for this station are not official NWS values.
T = Trace of Precipitation, MM = Missing Value Source: NWS Daily Summary

Daily Weather History Graph

Daily Weather History Graph

Search for Another Location

Airport or City:

Trip Planner

Search our weather history database for the weather conditions in past years. The results will help you decide how hot, cold, wet, or windy it might be!

Date:

Astronomy

Jan. 04, 2013 Rise Set
Actual Time 8:46 AM CST 5:10 PM CST
Civil Twilight 8:09 AM CST 5:47 PM CST
Nautical Twilight 7:29 AM CST 6:27 PM CST
Astronomical Twilight 6:51 AM CST 7:05 PM CST
Moon 12:24 AM CST (1/4) 11:50 AM CST (1/4)
Length of Visible Light 9h 37m
Length of Day
8h 23m
Waning Gibbous, 55% of the Moon is Illuminated
Jan 4
Waning Gibbous
Jan 4
Last Quarter
Jan 11
New
Jan 18
First Quarter
Jan 26
Full

Hourly Weather History & Observations

Time (CST) Temp. Windchill Dew Point Humidity Pressure Visibility Wind Dir Wind Speed Gust Speed Precip Events Conditions
12:15 AM 10.4 °F -4.1 °F 5.0 °F 79% 30.01 in 10.0 mi SSW 11.5 mph - N/A   Clear
12:35 AM 10.4 °F -4.1 °F 5.0 °F 79% 30.02 in 10.0 mi SSW 11.5 mph - N/A   Clear
12:55 AM 10.4 °F -5.4 °F 5.0 °F 79% 30.01 in 10.0 mi SSW 13.8 mph - N/A   Clear
1:15 AM 10.4 °F -5.4 °F 5.0 °F 79% 30.02 in 10.0 mi SSW 13.8 mph - N/A   Clear
1:35 AM 10.4 °F -6.0 °F 5.0 °F 79% 30.02 in 10.0 mi South 15.0 mph - N/A   Clear
1:55 AM 10.4 °F -6.0 °F 5.0 °F 79% 30.02 in 10.0 mi South 15.0 mph - N/A   Clear
2:15 AM 8.6 °F -8.3 °F 5.0 °F 85% 30.02 in 10.0 mi SSW 15.0 mph - N/A   Clear
2:35 AM 8.6 °F -7.7 °F 3.2 °F 79% 30.02 in 10.0 mi SSW 13.8 mph - N/A   Clear
3:15 AM 8.6 °F -6.3 °F 3.2 °F 79% 30.03 in 10.0 mi SW 11.5 mph - N/A   Clear
5:55 AM 6.8 °F -6.9 °F 1.4 °F 79% 30.03 in 10.0 mi SSW 9.2 mph - N/A   Clear
6:15 AM 8.6 °F -5.5 °F 3.2 °F 79% 30.03 in 10.0 mi SSW 10.4 mph - N/A   Clear
6:35 AM 6.8 °F -7.8 °F 1.4 °F 79% 30.03 in 10.0 mi SSW 10.4 mph - N/A   Clear
7:15 AM 8.6 °F -5.5 °F 3.2 °F 79% 30.03 in 10.0 mi SSW 10.4 mph - N/A   Clear
7:35 AM 8.6 °F -7.0 °F 3.2 °F 79% 30.03 in 10.0 mi South 12.7 mph - N/A   Clear
7:55 AM 8.6 °F -5.5 °F 3.2 °F 79% 30.03 in 10.0 mi SSW 10.4 mph - N/A   Clear
8:15 AM 6.8 °F -7.8 °F 3.2 °F 85% 30.03 in 10.0 mi SSW 10.4 mph - N/A   Clear
8:35 AM 6.8 °F -7.8 °F 1.4 °F 79% 30.02 in 10.0 mi South 10.4 mph - N/A   Clear
8:55 AM 5.0 °F -11.6 °F 1.4 °F 85% 30.02 in 10.0 mi South 12.7 mph - N/A   Clear
9:15 AM 5.0 °F -9.1 °F 1.4 °F 85% 30.02 in 10.0 mi South 9.2 mph - N/A   Clear
9:35 AM 6.8 °F -9.3 °F 1.4 °F 79% 30.02 in 10.0 mi SSW 12.7 mph - N/A   Clear
9:55 AM 8.6 °F -7.7 °F 1.4 °F 73% 30.03 in 10.0 mi SSW 13.8 mph - N/A   Clear
10:15 AM 10.4 °F -5.4 °F 5.0 °F 79% 30.02 in 10.0 mi SSW 13.8 mph - N/A   Clear
10:35 AM 10.4 °F -5.4 °F 5.0 °F 79% 30.02 in 10.0 mi South 13.8 mph - N/A   Clear
10:55 AM 10.4 °F -4.1 °F 5.0 °F 79% 30.02 in 10.0 mi South 11.5 mph - N/A   Clear
11:15 AM 10.4 °F -4.1 °F 5.0 °F 79% 30.01 in 10.0 mi SSW 11.5 mph - N/A   Clear
11:35 AM 10.4 °F -1.5 °F 5.0 °F 79% 30.01 in 10.0 mi SSW 8.1 mph - N/A   Clear
11:55 AM 12.2 °F -1.0 °F 6.8 °F 79% 30.00 in 10.0 mi SSW 10.4 mph - N/A   Clear
12:15 PM 14.0 °F 8.2 °F 6.8 °F 73% 30.01 in 10.0 mi WSW 3.5 mph - N/A   Clear
12:35 PM 15.8 °F 6.1 °F 8.6 °F 73% 30.02 in 10.0 mi WSW 6.9 mph - N/A   Clear
12:55 PM 17.6 °F - 8.6 °F 68% 30.01 in 10.0 mi Calm Calm - N/A   Clear
1:15 PM 17.6 °F 8.2 °F 8.6 °F 68% 29.99 in 10.0 mi SSW 6.9 mph - N/A   Clear
1:35 PM 17.6 °F 8.2 °F 8.6 °F 68% 29.97 in 10.0 mi South 6.9 mph - N/A   Clear
1:55 PM 15.8 °F 4.2 °F 8.6 °F 73% 29.96 in 10.0 mi SSW 9.2 mph - N/A   Clear
2:15 PM 15.8 °F 4.2 °F 8.6 °F 73% 29.95 in 10.0 mi South 9.2 mph - N/A   Clear
2:35 PM 17.6 °F 7.3 °F 10.4 °F 73% 29.94 in 10.0 mi SSW 8.1 mph - N/A   Clear
2:55 PM 15.8 °F 6.1 °F 10.4 °F 79% 29.96 in 10.0 mi WSW 6.9 mph - N/A   Clear
3:15 PM 17.6 °F 12.3 °F 10.4 °F 73% 29.95 in 10.0 mi WSW 3.5 mph - N/A   Clear
3:35 PM 17.6 °F 8.2 °F 10.4 °F 73% 29.94 in 10.0 mi South 6.9 mph - N/A   Clear
3:55 PM 17.6 °F 8.2 °F 10.4 °F 73% 29.95 in 10.0 mi South 6.9 mph - N/A   Clear
4:15 PM 17.6 °F 6.4 °F 10.4 °F 73% 29.93 in - SSE 9.2 mph - N/A   Clear
4:35 PM 15.8 °F 7.2 °F 10.4 °F 79% 29.95 in - South 5.8 mph - N/A   Clear
4:55 PM 15.8 °F 5.1 °F 10.4 °F 79% 29.94 in - South 8.1 mph - N/A   Clear
5:15 PM 14.0 °F 3.9 °F 8.6 °F 79% 29.94 in 10.0 mi SSW 6.9 mph - N/A   Clear
5:35 PM 12.2 °F -2.5 °F 6.8 °F 79% 29.93 in 10.0 mi SSW 12.7 mph - N/A   Clear
5:55 PM 14.0 °F -0.2 °F 8.6 °F 79% 29.92 in 10.0 mi SSW 12.7 mph - N/A   Clear
6:15 PM 15.8 °F -0.2 °F 8.6 °F 73% 29.91 in 10.0 mi SSW 17.3 mph - N/A   Clear
6:35 PM 14.0 °F -0.2 °F 8.6 °F 79% 29.91 in 10.0 mi South 12.7 mph - N/A   Clear
6:55 PM 12.2 °F -1.0 °F 6.8 °F 79% 29.91 in 10.0 mi SSW 10.4 mph - N/A   Clear
7:15 PM 10.4 °F -4.1 °F 6.8 °F 85% 29.91 in 10.0 mi South 11.5 mph - N/A   Clear
7:35 PM 12.2 °F -2.5 °F 6.8 °F 79% 29.89 in 10.0 mi South 12.7 mph - N/A   Clear
7:55 PM 10.4 °F -6.6 °F 6.8 °F 85% 29.89 in 10.0 mi SSW 16.1 mph - N/A   Clear
8:15 PM 10.4 °F -6.0 °F 6.8 °F 85% 29.88 in 10.0 mi SSW 15.0 mph - N/A   Clear
8:35 PM 14.0 °F -2.5 °F 8.6 °F 79% 29.88 in 10.0 mi SSW 17.3 mph - N/A   Clear
8:55 PM 14.0 °F -0.8 °F 8.6 °F 79% 29.88 in 10.0 mi SSW 13.8 mph - N/A   Clear
9:15 PM 14.0 °F -2.5 °F 8.6 °F 79% 29.87 in 10.0 mi SSW 17.3 mph - N/A   Clear
9:35 PM 14.0 °F -2.0 °F 8.6 °F 79% 29.87 in 10.0 mi SSW 16.1 mph - N/A   Clear
9:55 PM 14.0 °F -1.4 °F 8.6 °F 79% 29.86 in 10.0 mi SW 15.0 mph - N/A   Clear
10:15 PM 15.8 °F 2.1 °F 8.6 °F 73% 29.86 in 10.0 mi SW 12.7 mph - N/A   Clear
10:35 PM 15.8 °F 3.4 °F 10.4 °F 79% 29.86 in 10.0 mi SW 10.4 mph - N/A   Clear
10:55 PM 15.8 °F 5.1 °F 10.4 °F 79% 29.86 in 10.0 mi WSW 8.1 mph - N/A   Clear
11:15 PM 12.2 °F -0.2 °F 8.6 °F 85% 29.88 in 10.0 mi WSW 9.2 mph - N/A   Clear
11:35 PM 17.6 °F 1.7 °F 12.2 °F 79% 29.89 in 10.0 mi WNW 18.4 mph 23.0 mph N/A   Clear
11:55 PM 15.8 °F 0.9 °F 10.4 °F 79% 29.89 in 10.0 mi West 15.0 mph - N/A   Clear